GEFSNGP_con_probscp_144.txt.gz
Probability
0 0 0 0 0 1 0 0 0 0 0 0 0 0 0 1 2 3 2 1 0 0 0 1 2 2 2 1 0 0 0 0 0 0 0 0 0 0 0 0 0 0 0 0
0 0 0 0 1 1 1 0 0 0 0 0 0 0 0 0 1 3 2 1 0 0 0 0 1 1 1 0 0 0 0 0 0 0 0 0 0 0 0 0 0 0 0 0
0 0 0 0 1 1 1 1 0 0 0 0 0 0 0 0 1 2 2 1 0 1 1 0 0 0 0 1 1 0 0 0 0 0 0 0 0 0 0 0 0 0 0 0
0 0 0 0 0 0 0 0 0 0 0 0 0 0 0 0 0 1 2 1 1 2 2 1 0 0 1 2 2 1 0 0 0 0 0 0 0 0 0 0 0 0 0 0
0 0 0 0 0 0 0 0 0 0 0 0 0 0 0 0 0 0 1 1 1 2 2 1 0 1 2 3 2 1 0 0 0 0 0 0 0 0 0 0 0 0 0 0
0 0 0 0 0 0 0 0 0 0 0 0 0 0 0 0 0 0 0 0 0 1 1 1 0 1 3 3 2 1 0 0 0 0 0 0 0 0 0 0 0 0 0 0
0 0 0 0 0 0 0 0 0 0 0 0 0 0 0 0 0 0 0 0 0 0 0 0 0 2 3 3 3 2 1 0 0 0 0 0 0 0 0 0 0 0 0 0
0 0 0 0 0 0 0 0 0 0 0 0 0 1 1 1 0 0 0 0 0 0 0 0 0 1 2 3 3 3 2 1 1 1 1 0 0 0 0 0 0 0 0 0
0 0 0 0 0 0 0 0 0 0 0 0 0 1 2 2 1 0 0 0 0 0 0 0 0 0 1 2 2 3 2 2 2 2 2 1 1 0 0 0 0 0 0 0
0 0 0 0 0 0 0 0 0 0 0 0 0 0 1 2 1 0 0 0 0 0 0 0 0 0 0 1 1 1 3 4 4 3 2 2 1 0 0 0 0 0 0 0
0 0 0 0 0 0 0 0 0 0 0 0 0 0 0 1 1 0 0 0 0 0 0 0 0 0 0 0 0 1 3 5 4 3 2 1 1 0 0 0 0 0 0 0
0 0 0 0 0 0 0 0 0 0 0 0 0 0 0 0 0 0 0 0 0 0 0 0 0 0 0 0 0 0 1 2 2 1 1 0 0 0 0 0 0 0 0 0
0 0 0 0 0 0 0 0 0 0 0 0 0 0 0 0 0 0 0 0 0 0 0 0 1 1 0 1 1 0 0 0 0 0 0 0 0 0 0 0 0 0 0 0
0 0 0 0 0 0 0 0 0 0 0 0 0 0 0 0 0 0 0 0 0 0 0 1 2 2 1 1 1 1 0 0 0 0 0 0 0 0 0 0 0 0 0 0
0 0 0 0 0 0 0 0 0 0 0 0 0 0 0 0 0 0 0 0 0 0 0 1 2 2 1 1 1 1 0 0 0 0 0 0 0 0 0 0 0 0 0 0
0 0 0 0 0 0 0 0 0 0 0 0 0 0 0 0 0 0 0 0 0 0 0 1 1 1 0 0 0 0 0 0 0 0 0 0 0 0 0 0 0 0 0 0
0 0 0 0 0 0 0 0 0 0 0 0 0 0 0 0 0 0 0 0 0 0 0 0 0 0 0 0 0 0 0 0 0 0 0 0 0 0 0 0 0 0 0 0
0 0 0 0 0 0 0 0 0 0 0 0 0 0 0 0 0 0 0 0 0 0 0 0 0 0 0 0 0 0 0 0 0 0 0 0 0 0 0 0 0 0 0 0
0 0 0 0 0 0 0 0 0 0 0 0 0 0 0 0 0 0 0 0 0 0 0 0 0 0 0 0 0 0 0 0 0 0 0 0 0 0 0 0 0 0 0 0
0 0 0 0 0 0 0 0 0 0 0 0 0 0 0 0 0 0 0 0 0 0 0 0 0 0 0 0 0 0 0 0 0 0 0 0 0 0 0 0 0 0 0 0
0 0 0 0 0 0 0 0 0 0 0 0 0 0 0 0 0 1 1 1 0 0 0 0 0 0 0 0 0 0 0 0 0 0 0 0 0 0 0 0 0 0 0 0
0 0 0 0 0 0 0 0 0 0 0 0 0 0 0 0 0 1 1 1 0 0 0 0 0 0 0 0 0 0 0 0 0 0 0 0 0 0 0 0 0 0 0 0
0 0 0 0 0 0 0 0 0 0 0 0 0 0 0 0 0 0 0 0 0 0 0 0 0 0 0 0 0 0 0 0 0 0 0 0 0 0 0 0 0 0 0 0
0 0 0 0 0 0 0 0 0 0 0 0 0 0 0 0 0 0 0 0 0 0 0 0 0 0 0 0 0 0 0 0 0 0 0 0 0 0 0 0 0 0 0 0
0 0 0 0 0 0 0 0 0 0 0 0 0 0 0 0 0 0 0 0 0 0 0 0 0 0 0 0 0 0 0 0 0 0 0 0 0 0 0 0 0 0 0 0
0 0 0 0 0 0 0 0 0 0 0 0 0 0 0 0 0 0 0 0 0 0 0 0 0 0 0 0 0 0 0 0 0 0 0 0 0 0 0 0 0 0 0 0
0 0 0 0 0 0 0 0 0 0 0 0 0 0 0 0 0 0 0 0 0 0 0 0 0 0 0 0 0 0 0 0 0 0 0 0 0 0 0 0 0 0 0 0

GEFSNGP_con_probscp_150.txt.gz
Probability
0 0 0 0 0 0 0 0 0 0 0 1 1 1 0 0 0 1 3 6 9 10 10 12 12 11 10 10 10 9 7 6 8 11 14 15 13 10 7 4 3 4 4 3
0 0 0 0 0 0 0 0 0 0 1 2 3 3 1 0 1 1 2 5 9 11 12 13 14 13 12 10 9 8 7 7 10 14 17 16 13 10 7 5 4 4 4 3
1 1 1 1 0 0 1 2 3 3 4 4 5 5 2 1 1 2 2 4 9 13 13 13 14 15 14 12 10 8 7 8 11 15 17 15 12 8 7 6 6 5 4 3
1 1 1 2 1 1 3 5 5 6 6 5 5 4 2 0 1 2 2 4 9 12 12 11 11 13 13 12 10 7 7 7 9 12 14 13 11 9 8 8 8 7 5 3
1 0 1 2 2 2 3 4 4 4 4 4 3 2 1 0 0 1 2 5 9 10 8 7 9 11 12 11 9 8 7 8 8 11 12 13 13 13 12 11 9 8 5 3
0 0 0 1 1 1 2 3 2 2 2 2 1 2 2 1 2 3 3 5 9 10 9 9 12 15 15 14 12 11 9 9 11 13 15 15 17 18 16 13 11 8 6 4
0 0 0 0 0 1 3 3 4 4 3 2 2 3 3 4 7 9 8 7 8 10 11 14 18 22 22 20 18 17 15 14 16 18 18 18 19 20 19 16 13 10 8 7
1 1 1 0 0 2 4 5 6 6 4 3 3 3 4 7 13 16 15 14 13 12 13 15 20 25 26 26 26 27 25 23 23 24 23 21 21 23 22 19 14 11 9 9
2 2 2 1 1 1 3 4 4 4 3 3 3 3 4 7 14 19 20 21 20 16 12 12 16 21 24 29 35 39 38 34 32 32 30 27 25 24 22 19 14 11 11 11
3 2 1 1 1 1 1 1 1 1 1 1 2 3 3 6 12 16 20 23 23 19 12 10 13 16 20 27 37 43 43 40 37 36 35 33 28 24 22 20 16 15 16 16
2 1 0 1 1 0 0 0 0 0 0 0 1 1 3 6 10 13 16 21 23 19 15 13 15 18 20 25 34 42 43 40 36 34 35 33 29 24 20 18 15 14 16 16
1 0 0 0 0 0 0 0 0 0 0 0 0 1 3 6 9 11 13 17 19 20 19 19 20 22 24 26 33 41 43 38 32 28 28 28 26 21 14 9 7 6 7 7
0 0 0 0 0 0 0 1 1 1 1 0 1 1 3 5 7 8 9 11 14 17 21 23 23 24 26 28 32 36 36 31 26 23 21 21 22 17 10 4 2 1 0 1
0 0 0 1 0 0 1 2 2 2 2 2 2 3 3 5 5 4 5 7 9 12 16 20 21 23 25 27 29 28 26 23 21 20 19 18 18 15 10 7 5 3 1 0
0 0 0 0 0 0 1 2 3 3 2 3 3 3 3 4 3 2 2 4 7 9 12 15 17 19 22 24 24 23 20 18 17 18 18 17 15 13 11 9 7 5 3 1
0 0 0 0 0 0 0 1 2 1 1 2 3 3 3 2 1 0 1 2 4 6 9 12 13 14 16 19 20 18 15 12 11 13 14 14 12 10 9 9 9 8 6 5
0 0 0 0 0 0 0 0 0 0 1 2 1 1 2 1 0 0 0 1 1 2 4 6 8 10 12 14 15 14 11 7 7 9 10 10 10 9 9 10 10 11 10 8
0 0 0 0 0 0 0 0 0 1 1 1 0 0 0 0 0 1 1 1 0 0 1 2 4 5 7 9 11 12 11 8 6 7 8 8 8 9 9 10 10 10 9 7
0 0 0 1 1 2 1 0 0 1 1 0 0 0 0 0 1 2 2 2 1 0 0 1 1 2 3 4 6 9 9 7 6 6 7 6 6 7 8 8 8 8 7 6
0 0 1 1 2 2 1 0 0 0 0 0 0 0 0 0 1 2 3 2 1 0 0 0 0 1 2 2 3 5 6 5 5 6 5 4 3 4 5 6 6 6 5 5
0 0 1 1 1 1 1 0 0 0 0 0 0 0 0 0 2 3 3 2 0 0 0 0 0 0 1 2 2 3 4 4 4 3 2 1 1 1 2 4 5 4 3 3
0 0 0 0 0 1 1 1 0 0 0 0 0 0 0 1 3 3 3 2 1 0 0 0 0 0 0 1 2 3 3 3 2 1 0 0 0 0 0 1 2 1 1 1
0 0 0 0 0 1 2 1 0 0 0 0 0 0 0 1 2 3 2 2 1 0 0 0 0 0 0 1 2 3 2 1 1 0 0 0 0 0 0 0 0 0 0 0
0 0 0 0 0 1 1 0 0 0 0 0 0 0 0 0 1 1 1 1 1 0 0 0 0 0 1 2 3 2 1 1 0 0 0 0 0 0 0 0 0 0 0 0
0 0 0 0 0 0 0 0 0 0 0 0 0 0 0 0 0 0 0 0 0 0 0 0 0 0 1 2 2 1 1 1 0 0 0 0 0 0 0 0 0 0 0 0
0 0 0 0 0 0 0 0 0 0 0 0 0 0 0 0 0 0 0 0 0 0 0 0 0 0 0 1 1 1 0 0 0 0 0 0 0 0 0 0 0 0 0 0
0 0 0 0 0 0 0 0 0 0 0 0 0 0 0 0 0 0 0 0 0 0 0 0 0 0 0 0 0 0 0 0 0 0 0 0 0 0 0 0 0 0 0 0

GEFSNGP_con_probscp_156.txt.gz
Probability
1 1 0 0 0 0 0 0 1 2 4 6 7 6 4 5 6 9 19 30 40 46 48 49 49 48 43 37 32 29 26 20 19 18 16 15 17 19 22 22 22 19 16 14
3 1 0 0 0 0 0 0 1 3 6 9 11 9 8 8 9 11 15 24 37 45 48 49 51 50 48 43 39 35 30 25 24 24 21 19 19 21 24 24 22 20 16 13
2 1 0 0 0 0 0 0 2 5 9 12 13 11 10 12 14 14 14 23 36 44 46 46 47 49 49 47 45 40 33 29 29 31 30 28 25 27 30 29 27 24 19 14
1 0 0 1 2 2 2 3 5 7 9 11 11 10 10 13 15 15 17 28 40 44 42 40 40 43 44 43 43 40 34 30 32 35 38 37 36 37 40 39 36 31 24 18
0 0 1 2 3 4 6 8 9 9 9 10 9 9 10 13 16 17 19 31 42 44 42 42 42 42 41 41 41 40 36 35 39 43 45 44 45 48 50 48 43 36 27 21
1 0 1 2 2 4 8 10 10 9 10 12 12 11 12 15 20 20 22 30 40 45 48 50 51 48 44 42 43 43 42 43 49 54 54 53 54 58 58 53 46 37 28 23
1 1 1 2 2 5 11 14 12 9 9 11 13 12 14 19 22 23 22 25 34 44 52 57 57 54 50 47 46 47 48 51 56 59 58 56 61 65 62 52 43 36 30 26
5 6 7 7 7 11 18 20 16 11 8 10 12 13 17 22 24 24 22 23 30 39 48 55 57 57 57 55 51 50 52 55 59 60 55 53 59 62 56 44 35 31 29 26
13 14 13 11 12 15 15 15 14 12 9 9 10 12 16 22 25 24 23 25 29 34 42 48 51 54 58 60 57 54 55 57 60 59 55 52 52 51 44 36 26 23 22 21
17 16 12 9 9 8 6 6 8 8 7 7 8 9 14 20 22 21 22 25 28 32 38 43 45 48 53 59 60 58 57 59 59 57 55 52 47 40 34 29 25 20 18 17
16 14 10 7 4 2 1 2 4 4 5 5 6 9 13 17 17 16 19 22 26 31 34 37 41 45 49 54 59 60 59 59 58 55 52 48 41 31 25 23 21 17 14 13
12 11 10 7 4 2 1 2 3 3 3 4 7 10 13 14 14 14 17 21 23 26 28 31 36 42 46 50 55 56 56 55 54 51 48 42 34 25 17 12 10 8 7 7
5 6 6 6 4 3 2 2 3 3 3 4 6 9 11 12 13 14 16 18 19 20 23 25 28 33 40 45 49 50 47 45 44 43 41 36 29 24 16 8 4 2 2 2
2 2 2 2 2 2 2 2 2 2 2 2 5 8 10 12 14 15 14 13 14 16 19 21 22 26 32 38 42 41 38 36 36 35 34 32 29 26 20 13 8 4 1 0
2 2 1 0 1 1 1 1 1 1 1 2 5 7 9 11 13 12 10 9 10 12 14 15 16 19 24 29 31 32 30 28 29 31 30 30 28 25 20 15 12 7 3 1
1 1 0 0 1 1 0 0 1 2 2 4 6 7 8 9 8 7 5 5 7 9 9 9 12 14 17 21 23 25 24 21 22 25 26 25 25 22 17 15 13 9 5 2
1 1 0 0 0 0 0 1 2 4 5 6 6 6 6 6 5 3 1 2 4 5 6 7 9 11 13 16 19 19 17 14 13 17 20 20 20 19 17 15 11 7 4 2
0 0 0 0 0 0 0 1 3 6 6 6 5 4 4 4 2 1 1 1 2 3 4 5 6 7 8 12 13 12 12 10 9 11 13 14 14 15 14 12 7 4 2 1
0 0 0 0 0 0 0 1 4 6 6 5 4 3 3 3 2 1 2 2 1 2 3 3 3 3 4 6 7 8 8 8 7 8 8 8 8 9 9 6 3 1 1 0
0 0 0 0 0 0 1 3 5 6 5 3 3 3 3 3 2 2 2 2 1 2 2 2 1 2 2 2 3 5 7 7 6 5 6 5 5 6 5 3 2 1 1 0
0 0 0 0 1 1 2 4 5 5 4 2 1 2 2 2 2 2 2 2 2 2 1 1 0 0 0 0 1 2 4 6 6 5 5 6 6 5 4 2 3 3 2 1
0 0 0 1 2 2 3 4 5 4 2 0 0 1 1 0 1 2 1 1 1 1 0 0 0 0 0 0 0 1 2 4 5 5 4 5 6 5 3 2 2 2 2 1
0 1 1 2 2 1 1 3 3 2 0 0 1 1 0 0 0 0 0 0 0 0 0 0 0 0 0 0 0 0 1 2 2 3 3 3 3 3 1 1 1 1 1 0
1 1 1 1 1 0 0 1 1 0 0 0 1 1 0 0 0 0 0 0 0 0 0 0 0 0 0 0 0 0 1 1 1 1 1 1 1 1 0 0 0 0 0 0
0 1 1 0 0 0 0 0 0 0 0 0 1 1 0 0 0 0 0 0 0 0 0 0 0 0 0 0 0 0 0 0 0 0 0 0 0 0 0 0 0 0 0 0
0 0 0 0 0 0 0 0 0 0 0 0 0 0 0 0 0 0 0 0 0 0 0 0 0 0 0 0 0 0 0 0 0 0 0 0 0 0 0 0 0 0 0 0
0 0 0 0 0 0 0 0 0 0 0 0 0 0 0 0 0 0 0 0 0 0 0 0 0 0 0 0 0 0 0 0 0 0 0 0 0 0 0 0 0 0 0 0

GEFSNGP_con_probscp_162.txt.gz
Probability
0 0 0 0 0 0 0 0 0 0 0 1 3 4 6 9 9 8 9 11 15 15 12 10 12 15 19 24 26 23 18 15 13 13 12 10 9 9 9 8 6 6 7 9
1 0 0 0 0 0 0 0 0 0 1 2 3 3 5 8 9 8 9 11 12 12 10 9 11 14 18 22 23 21 17 14 11 9 8 8 7 6 6 5 4 4 5 5
2 1 0 0 0 0 0 0 1 1 2 3 3 2 4 8 9 8 8 11 11 9 8 8 9 12 15 16 16 16 15 13 8 4 3 4 4 4 4 4 4 4 3 3
2 1 0 0 0 0 0 1 2 2 3 6 6 4 6 8 8 6 6 9 9 7 7 8 9 11 12 11 10 11 11 10 6 3 1 1 2 3 4 5 6 6 4 2
1 1 0 0 0 0 1 2 3 5 7 9 8 6 6 7 7 5 5 7 7 7 10 12 12 11 11 10 8 7 6 6 5 3 1 1 2 3 5 7 6 6 4 2
0 0 0 1 1 1 1 3 5 8 10 9 7 6 6 8 7 6 6 7 8 10 13 16 16 14 13 10 7 5 4 4 4 4 3 2 3 3 5 6 5 4 4 4
0 0 1 2 2 1 1 2 5 8 9 8 7 7 8 9 9 9 10 11 12 13 14 16 18 18 15 11 8 6 6 6 6 7 6 5 4 3 4 5 5 4 4 5
0 0 1 3 3 2 1 2 4 5 7 9 9 9 8 8 10 12 13 14 15 14 12 13 17 19 17 14 11 9 8 9 9 9 9 8 6 5 6 5 4 5 6 6
1 1 2 3 4 3 2 2 3 4 7 10 10 9 7 7 10 12 12 13 15 14 11 11 14 16 15 15 14 13 13 12 11 10 10 10 8 9 10 9 7 6 6 6
1 1 2 4 5 4 3 3 4 5 8 9 9 7 6 6 9 10 10 11 13 13 12 12 12 11 11 13 16 17 18 17 15 13 11 9 8 10 12 12 10 9 8 8
1 1 2 4 4 3 2 3 4 5 7 8 8 7 6 6 7 8 8 10 11 11 11 12 11 10 8 10 13 16 17 19 17 15 11 7 5 6 7 8 9 9 9 9
1 1 2 3 3 1 0 2 4 5 6 7 7 7 6 5 6 6 7 8 8 8 8 9 9 8 6 6 8 9 11 14 14 11 8 5 3 2 2 2 3 3 4 5
1 1 2 3 2 1 0 1 4 5 5 5 4 4 4 4 5 6 6 6 6 6 5 5 5 5 4 4 4 4 6 8 10 8 5 3 3 2 1 0 0 0 0 1
0 0 1 2 2 1 0 1 2 3 3 2 1 1 3 3 4 5 5 4 4 3 3 3 3 2 3 3 2 2 3 5 6 6 4 3 3 4 4 2 0 0 0 0
0 0 0 1 1 0 0 0 1 1 1 0 0 1 2 3 2 2 2 1 1 1 1 1 1 1 2 3 2 2 1 2 3 3 3 2 3 5 6 5 2 0 0 0
0 0 0 0 0 0 0 0 0 0 0 0 0 1 1 1 1 0 0 0 0 0 0 0 0 1 2 3 3 2 1 0 0 1 1 2 3 4 6 5 3 1 0 0
0 0 0 0 0 0 0 0 0 0 0 0 0 0 0 0 0 0 0 0 0 0 0 0 0 0 1 1 2 2 2 1 0 0 0 1 2 2 2 3 2 0 0 0
0 0 0 0 0 0 0 0 0 0 0 0 0 0 0 0 0 0 0 0 0 0 0 0 0 0 0 0 1 1 1 1 0 0 0 0 0 0 0 0 0 0 0 0
0 0 0 0 0 0 0 0 0 0 0 0 0 0 0 0 0 0 0 0 0 0 0 0 0 0 0 0 0 0 0 0 0 0 0 0 0 0 0 0 0 0 0 0
0 0 0 0 0 0 0 0 0 0 0 0 0 0 0 0 0 0 0 0 0 0 0 0 0 0 0 0 0 0 0 0 0 0 0 0 0 0 0 0 0 0 0 0
0 0 0 0 0 0 0 0 0 1 0 0 0 0 0 0 0 0 0 0 0 0 0 0 0 0 0 0 0 0 0 0 0 0 0 0 0 0 0 0 0 0 0 0
0 0 0 0 0 0 0 0 0 0 0 0 0 0 0 0 0 0 0 0 0 0 0 0 0 0 0 0 0 0 0 0 0 0 0 0 0 0 0 0 0 0 0 0
0 0 0 0 1 1 1 0 0 0 0 0 0 0 0 0 0 0 0 0 0 0 0 0 0 0 0 0 0 0 0 0 0 0 0 0 0 0 0 0 0 0 0 0
0 1 1 1 1 1 1 0 0 0 0 0 0 0 0 0 0 0 0 0 0 0 0 0 0 0 0 0 0 0 0 0 0 0 0 0 0 0 0 0 0 0 0 0
1 2 2 2 1 1 0 0 0 0 0 0 0 0 0 0 0 0 0 0 0 0 0 0 0 0 0 0 0 0 0 0 0 0 0 0 0 0 0 0 0 0 0 0
2 2 2 1 0 0 0 0 0 0 0 0 0 0 0 0 0 0 0 0 0 0 0 0 0 0 0 0 0 0 0 0 0 0 0 0 0 0 0 0 0 0 0 0
1 1 1 0 0 0 0 0 0 0 0 0 0 0 0 0 0 0 0 0 0 0 0 0 0 0 0 0 0 0 0 0 0 0 0 0 0 0 0 0 0 0 0 0

GEFSNGP_con_probscp_168.txt.gz
Probability
0 0 0 0 0 0 0 0 0 0 0 0 0 0 1 3 5 7 7 5 4 4 4 7 10 10 12 17 19 19 17 16 14 13 13 12 10 10 9 6 4 3 4 5
0 0 0 0 0 0 0 0 0 0 0 0 0 0 1 3 6 7 5 3 2 1 2 5 8 10 11 13 15 16 15 14 13 13 13 12 10 9 8 6 4 3 3 3
0 0 0 0 0 0 0 0 0 0 0 0 0 0 1 3 6 6 3 1 0 0 0 2 5 7 8 8 9 10 10 10 10 10 11 10 8 7 6 5 3 1 1 1
0 0 0 0 0 0 0 0 0 0 0 1 1 1 0 2 4 4 2 0 0 0 0 0 2 3 4 5 5 5 6 7 7 8 7 6 4 3 3 3 1 0 0 0
0 0 0 0 0 0 0 0 0 0 1 2 2 1 0 0 1 1 0 0 0 0 0 0 0 1 3 4 3 3 4 6 6 6 6 4 3 2 1 1 0 0 0 0
0 0 0 0 0 1 0 0 0 1 2 2 1 1 0 0 0 0 0 0 0 0 1 2 1 1 3 4 4 3 4 6 6 6 6 4 3 3 1 0 0 0 0 0
0 0 0 0 0 0 0 0 0 1 2 2 0 0 0 0 0 0 0 1 1 1 2 2 2 3 3 3 3 3 4 6 6 6 6 4 3 3 2 1 0 0 0 0
0 0 0 0 0 0 0 0 0 1 2 1 1 1 1 1 1 1 1 2 2 3 2 2 3 3 3 2 2 2 3 5 6 6 6 5 4 3 2 1 0 0 0 0
0 0 1 1 0 0 0 0 1 1 1 1 1 2 2 2 2 3 2 3 3 3 3 2 3 3 3 2 3 2 2 3 4 4 4 4 4 3 2 1 1 1 1 1
0 1 2 2 1 0 0 0 1 2 1 0 1 2 2 3 3 5 5 4 3 3 3 3 3 4 4 4 5 3 1 1 2 2 3 3 4 4 3 2 2 2 2 2
1 1 2 2 1 1 1 1 1 1 1 2 3 4 4 3 3 5 6 5 4 4 3 4 5 5 5 6 6 4 3 2 3 4 4 4 4 4 3 2 2 2 2 2
0 1 1 1 1 1 2 2 1 0 1 2 4 4 4 3 2 3 4 4 4 4 4 4 5 5 5 6 5 5 5 5 5 5 4 4 4 2 1 1 1 1 1 1
0 0 0 0 0 1 3 3 1 0 0 1 1 2 1 1 1 1 2 3 4 4 3 3 4 4 4 3 3 3 4 3 3 3 2 2 1 1 0 0 0 0 0 0
0 0 0 0 1 2 2 2 1 0 0 0 0 0 0 0 0 1 3 4 4 3 3 2 1 1 1 1 1 1 1 1 1 1 1 0 0 0 0 0 0 0 0 0
0 0 0 0 1 1 1 1 1 0 0 0 0 0 0 0 0 2 3 4 4 3 3 1 0 0 0 0 0 0 0 0 0 0 0 0 0 0 1 1 0 0 0 0
0 0 0 0 0 0 0 0 0 0 0 0 0 0 0 0 0 1 2 3 2 2 2 1 0 0 0 0 0 0 0 0 0 0 0 0 0 0 1 2 1 0 0 0
0 0 0 0 0 0 0 0 0 0 0 0 0 0 0 0 0 0 1 1 0 1 1 0 0 0 0 0 0 0 0 0 0 0 0 0 0 0 1 1 1 0 1 1
0 0 0 0 0 0 0 0 0 0 0 0 0 0 0 0 0 0 0 0 0 0 0 0 0 0 0 0 0 0 0 0 0 0 0 0 0 0 0 0 0 0 0 0
0 0 0 0 0 0 0 0 0 0 0 0 0 0 0 0 0 0 0 0 0 0 0 0 0 0 0 0 0 0 0 0 0 0 0 0 0 0 0 0 0 0 0 0
0 0 0 0 0 0 0 0 0 0 0 0 0 0 0 0 0 0 0 0 0 0 0 0 0 0 0 0 0 0 0 0 0 0 0 0 0 0 0 0 0 0 0 0
0 0 0 0 0 0 0 0 0 0 0 0 0 0 0 0 0 0 0 0 0 0 0 0 0 0 0 0 0 0 0 0 0 0 0 0 0 0 0 0 0 0 0 0
0 0 0 0 0 0 0 0 0 0 0 0 0 0 0 0 0 0 0 0 0 0 0 0 0 0 0 0 0 0 0 0 0 0 0 0 0 0 0 0 0 0 0 0
0 0 0 0 0 0 0 0 0 0 0 0 0 0 0 0 0 0 0 0 0 0 0 0 0 0 0 0 0 0 0 0 0 0 0 0 0 0 0 0 0 0 0 0
0 0 0 0 0 0 0 0 0 0 0 0 0 0 0 0 0 0 0 0 0 0 0 0 0 0 0 0 0 0 0 0 0 0 0 0 0 0 0 0 0 0 0 0
0 0 0 0 0 0 0 0 0 0 0 0 0 0 0 0 0 0 0 0 0 0 0 0 0 0 0 0 0 0 0 0 0 0 0 0 0 0 0 0 0 0 0 0
0 0 0 0 0 0 0 0 0 0 0 0 0 0 0 0 0 0 0 0 0 0 0 0 0 0 0 0 0 0 0 0 0 0 0 0 0 0 0 0 0 0 0 0
0 0 0 0 0 0 0 0 0 0 0 0 0 0 0 0 0 0 0 0 0 0 0 0 0 0 0 0 0 0 0 0 0 0 0 0 0 0 0 0 0 0 0 0

GEFSNGP_con_probscp_174.txt.gz
Probability
0 0 0 0 0 0 0 0 0 0 0 0 0 0 2 6 8 11 15 20 25 28 26 23 25 29 29 26 26 28 29 29 28 28 26 26 24 20 17 14 14 16 17 17
0 0 0 0 0 0 0 0 0 0 0 0 0 1 3 7 10 13 16 20 25 26 26 26 27 31 32 30 28 29 28 27 27 27 28 27 25 23 21 19 18 19 19 18
0 0 0 1 1 0 0 0 0 0 0 0 1 3 5 9 12 14 17 21 24 25 26 27 29 32 34 32 31 29 26 24 23 23 25 24 22 23 23 23 23 22 21 19
0 0 1 2 2 2 1 1 2 1 1 2 4 5 6 9 12 15 19 22 23 22 23 25 27 30 33 33 33 30 25 21 19 19 19 19 20 22 24 24 24 23 21 19
0 0 2 3 4 3 4 5 5 4 3 3 5 5 6 8 11 15 18 22 22 19 20 22 24 27 31 32 32 30 25 20 18 17 17 18 20 22 24 23 21 19 19 18
0 0 2 4 4 3 4 6 7 7 6 4 4 5 7 10 13 16 18 20 21 20 19 21 23 26 27 28 29 29 25 21 19 19 18 18 20 22 22 21 18 16 14 15
1 1 3 6 5 4 7 10 11 11 9 7 6 8 12 15 17 18 19 19 21 22 22 22 24 25 23 24 26 27 25 23 22 20 17 17 19 19 18 17 16 15 12 11
3 3 5 9 10 11 14 18 16 15 15 14 13 14 18 20 20 20 20 21 23 24 23 24 25 25 23 21 21 22 23 22 21 19 15 14 17 18 16 14 13 12 11 10
6 4 6 11 17 19 20 20 20 18 19 18 17 20 22 23 23 23 23 25 25 24 22 22 22 23 23 21 19 18 19 18 17 16 13 12 14 14 13 13 11 10 11 12
7 5 5 11 19 23 22 21 21 20 19 18 21 24 25 25 25 25 26 28 28 26 23 20 19 20 22 21 20 18 17 16 14 13 12 12 12 12 12 13 13 12 13 14
6 5 5 10 16 21 22 20 20 19 18 20 23 25 26 27 27 26 26 27 28 27 25 22 19 19 20 21 21 20 18 17 15 13 12 12 12 11 11 11 11 11 12 12
6 5 5 8 11 14 16 17 16 16 17 20 22 22 22 24 23 22 22 22 23 23 23 22 20 20 20 21 21 20 20 19 17 14 13 13 12 10 8 5 4 5 5 6
6 5 4 6 7 8 11 12 13 13 15 17 19 17 15 16 16 15 16 17 16 16 18 19 18 18 19 20 20 19 19 19 18 17 15 15 13 11 8 4 1 1 1 1
4 4 4 6 6 6 7 8 10 10 12 14 14 13 11 10 9 9 10 11 11 13 15 16 16 16 16 16 15 15 16 16 17 17 15 13 13 12 9 6 4 4 2 1
2 3 4 5 5 4 4 5 8 9 9 10 11 10 10 8 6 4 4 6 8 11 13 13 13 12 12 11 9 9 10 10 12 13 11 9 8 8 7 6 7 7 5 2
0 1 2 3 4 4 3 4 6 6 6 7 8 9 9 7 4 2 3 4 6 9 11 11 10 8 7 6 5 4 4 5 6 7 7 5 4 4 4 5 6 6 4 2
0 0 0 1 3 3 3 3 3 3 5 7 8 8 7 5 3 3 3 3 4 6 8 9 7 5 4 4 4 3 3 3 3 4 4 4 3 2 2 2 2 2 1 1
0 0 0 0 1 3 3 2 1 3 5 6 7 7 6 4 3 3 3 3 3 4 4 5 4 3 2 2 2 2 2 2 2 2 2 2 2 1 0 0 0 0 0 0
0 0 0 0 1 2 3 3 3 4 5 5 5 5 4 2 1 1 2 2 2 2 1 1 2 1 1 1 1 1 1 1 1 1 0 0 0 1 1 0 0 0 0 0
0 0 0 0 0 1 3 3 3 3 3 3 3 2 1 1 0 0 1 1 1 1 0 0 1 2 1 0 0 0 0 0 0 0 0 0 0 1 2 1 0 0 0 0
0 0 0 0 0 1 2 2 1 1 1 2 1 0 0 0 0 0 0 0 0 0 0 0 1 2 1 1 1 1 1 1 1 0 0 0 0 1 2 1 0 0 0 0
0 0 0 0 0 0 1 1 0 0 0 0 0 0 0 0 0 0 0 0 0 0 0 0 1 1 1 1 2 2 2 2 1 0 0 0 0 0 1 1 1 1 1 0
0 0 0 0 0 0 0 0 0 0 1 1 0 0 0 0 0 0 0 0 0 0 0 0 0 0 0 1 2 2 2 2 1 0 0 0 0 0 0 1 2 2 1 1
0 0 0 0 0 0 0 0 0 0 1 1 0 0 0 0 0 0 0 0 0 0 0 0 0 0 0 0 1 1 1 1 0 0 0 0 0 0 0 1 2 1 1 0
0 0 0 0 0 0 0 0 0 0 1 1 0 0 0 0 0 0 0 0 0 0 0 0 0 0 0 0 0 0 0 0 0 0 0 0 0 0 0 1 1 0 0 0
0 0 0 0 0 0 0 0 0 0 0 0 0 0 0 0 0 0 0 0 0 0 0 0 0 0 0 0 0 0 0 0 0 0 0 0 0 0 0 0 0 0 0 0
0 0 0 0 0 0 0 0 0 0 0 0 0 0 0 0 0 0 0 0 0 0 0 0 0 0 0 0 0 0 0 0 0 0 0 0 0 0 0 0 0 0 0 0

GEFSNGP_con_probscp_180.txt.gz
Probability
0 0 0 0 0 0 0 0 1 1 3 7 9 9 10 15 20 22 28 39 49 53 53 53 53 53 53 52 51 48 45 44 43 43 45 47 50 52 51 41 32 29 27 23
0 0 0 0 0 0 0 0 1 2 5 8 11 12 13 18 23 27 32 39 48 53 53 51 50 49 50 52 52 50 47 44 43 43 43 43 44 46 47 41 34 30 27 23
0 1 1 1 1 0 1 3 4 6 9 11 13 16 19 24 29 35 38 42 48 52 52 52 49 48 49 51 52 52 48 45 43 42 39 36 37 41 42 37 34 32 28 25
0 1 2 2 2 2 5 9 12 13 13 15 17 19 21 26 33 38 41 45 49 48 49 52 52 51 49 49 49 50 48 45 42 38 33 31 33 38 38 34 32 31 29 26
0 1 2 4 6 7 10 16 19 18 17 18 18 18 19 25 33 38 43 47 46 44 46 51 53 52 49 47 48 48 45 42 39 35 31 30 33 36 36 33 31 30 27 25
0 1 3 7 11 12 13 18 22 24 24 22 19 19 24 32 37 41 44 45 43 41 44 50 52 50 47 47 48 48 44 41 39 36 34 32 33 34 34 32 29 26 22 21
1 2 6 11 14 15 19 25 27 29 29 27 25 27 35 42 45 45 44 42 42 43 45 47 47 46 46 46 46 45 44 41 39 38 35 33 32 33 32 29 26 22 18 16
6 8 14 19 20 23 31 36 35 32 31 30 30 32 39 45 47 46 42 39 41 44 44 43 42 43 45 45 43 42 41 39 36 34 31 29 29 30 29 27 24 20 16 13
13 17 23 26 28 32 37 39 37 34 31 29 28 31 37 42 45 44 41 39 40 41 40 40 41 42 45 44 42 40 38 35 31 26 23 22 22 23 23 23 21 17 13 11
17 20 25 27 30 33 33 32 32 30 26 24 25 30 35 39 41 42 41 41 41 40 38 38 39 41 42 41 39 36 31 28 23 19 16 15 14 14 14 15 15 13 11 11
18 20 23 26 30 33 31 27 25 23 20 21 24 29 34 37 39 41 42 43 44 42 39 36 36 36 36 35 33 28 23 20 17 15 14 12 9 8 8 8 9 9 9 9
18 20 22 25 29 31 29 25 22 19 19 22 26 30 34 36 38 40 41 41 41 38 35 33 32 32 31 30 27 23 18 16 15 15 14 12 9 6 5 4 3 4 4 4
18 18 19 21 25 27 25 21 20 20 22 25 29 31 33 34 34 34 33 31 30 28 27 28 28 28 27 26 24 21 18 16 16 15 14 12 9 7 5 3 1 0 0 1
13 13 15 17 19 20 19 17 17 19 22 25 27 28 28 28 28 25 22 19 17 18 20 22 23 23 23 21 21 20 19 17 16 15 14 13 11 10 7 5 3 2 1 0
5 7 9 12 13 14 14 15 15 16 17 18 21 23 23 22 21 19 16 12 11 13 14 15 17 18 18 17 16 16 15 14 14 13 12 11 11 10 7 6 5 3 2 1
1 2 5 7 8 9 9 11 13 13 12 12 14 17 19 18 17 16 14 11 10 11 11 12 12 13 12 11 10 9 7 6 7 8 7 7 9 9 8 7 5 4 2 1
1 2 3 4 4 5 6 8 10 11 11 10 11 13 15 15 15 14 13 11 10 10 11 10 9 8 6 5 4 3 2 2 3 4 4 4 6 8 8 7 5 3 1 0
2 3 3 3 3 4 5 6 7 8 9 9 10 11 12 12 12 11 11 10 9 9 9 8 7 6 5 3 3 3 3 2 3 3 3 3 4 5 6 4 2 1 1 0
2 2 2 2 2 3 4 4 4 5 5 7 8 9 10 10 9 8 8 8 7 7 7 7 7 7 6 4 4 6 5 3 4 4 3 2 3 3 3 2 0 0 1 1
2 2 1 1 1 3 3 3 3 3 3 4 6 7 9 9 8 7 7 6 6 6 6 6 7 7 6 4 3 5 4 2 1 2 2 3 3 2 2 1 0 0 0 0
2 2 3 2 2 2 3 3 3 3 3 3 4 5 7 8 8 7 6 6 5 5 5 5 5 6 5 3 2 3 3 1 0 0 1 2 3 3 3 2 1 0 0 0
1 2 3 3 3 3 3 3 3 3 3 3 3 4 5 6 7 6 5 4 3 3 4 4 4 3 3 3 3 3 3 2 1 1 1 1 2 3 3 2 1 0 0 0
1 1 2 3 4 3 3 3 3 3 3 3 3 3 4 4 4 4 3 3 2 1 2 2 1 1 1 3 3 3 3 3 2 2 2 2 2 2 1 1 0 0 0 0
1 1 1 1 2 2 1 2 2 3 3 3 3 3 3 2 2 2 2 1 1 0 1 1 0 0 1 2 2 2 2 2 1 1 1 1 1 1 0 0 0 1 0 0
1 1 0 0 0 0 0 1 1 1 2 2 1 1 2 1 1 2 2 1 0 0 0 0 0 0 0 1 1 1 1 1 0 0 0 0 0 0 0 0 0 0 0 0
1 0 0 0 0 0 0 0 0 0 1 1 0 1 2 1 2 2 1 0 0 0 0 0 0 0 0 0 0 0 0 0 0 0 0 0 0 0 0 0 0 0 0 0
1 0 0 0 0 0 0 0 0 0 0 0 0 1 2 2 2 2 1 0 0 0 0 0 0 0 0 0 0 0 0 0 0 0 0 0 0 0 0 0 0 0 0 0